NG87GH KGSO-KLUK

Flight info

Callsign NG87GH
Flight time 1h 13m
Altitude 43000
Route TRSHA1 BAWDS CUBIM JAKIE7
Aircraft HDJT/L-SABDGRWY/H

Departure

Time 2026-05-06 20:45
Airport Piedmont Triad International Airport (KGSO)

Arrival

Time 2026-05-06 21:58
Airport Cincinnati Municipal Airport Lunken Field (KLUK)
Time Latitude Longitude Altitude Speed Heading
2026-05-06 20:43 36.10997 -79.92058 943 ft 0 kts 226°
2026-05-06 20:44 36.10911 -79.92168 942 ft 8 kts 227°
2026-05-06 20:44 36.10910 -79.92170 942 ft 0 kts 227°
2026-05-06 20:44 36.10726 -79.92408 939 ft 86 kts 226°
2026-05-06 20:44 36.10188 -79.93116 1159 ft 128 kts 227°
2026-05-06 20:45 36.09525 -79.94048 1484 ft 159 kts 229°
2026-05-06 20:45 36.08799 -79.95195 2030 ft 181 kts 243°
2026-05-06 20:45 36.08510 -79.96770 2731 ft 195 kts 259°
2026-05-06 20:45 36.08334 -79.98469 3438 ft 211 kts 262°
2026-05-06 20:46 36.08215 -80.00376 3834 ft 234 kts 264°
2026-05-06 20:46 36.08169 -80.02421 4590 ft 242 kts 272°
2026-05-06 20:46 36.08779 -80.04384 5462 ft 254 kts 302°
2026-05-06 20:46 36.09982 -80.06011 6391 ft 257 kts 309°
2026-05-06 20:47 36.11195 -80.07625 7289 ft 255 kts 306°
2026-05-06 20:47 36.12299 -80.09328 8216 ft 253 kts 303°
2026-05-06 20:47 36.13374 -80.11048 9187 ft 253 kts 303°
2026-05-06 20:47 36.14473 -80.12744 10129 ft 253 kts 304°
2026-05-06 20:48 36.15577 -80.14430 11035 ft 252 kts 303°
2026-05-06 20:48 36.16672 -80.16115 11974 ft 250 kts 303°
2026-05-06 20:48 36.17758 -80.17791 12947 ft 249 kts 303°
2026-05-06 20:48 36.18837 -80.19456 13905 ft 247 kts 303°
2026-05-06 20:49 36.19910 -80.21109 14786 ft 245 kts 303°
2026-05-06 20:49 36.20972 -80.22749 15692 ft 243 kts 303°
2026-05-06 20:49 36.22022 -80.24370 16622 ft 240 kts 303°
2026-05-06 20:49 36.23055 -80.25964 17601 ft 234 kts 303°
2026-05-06 20:50 36.24061 -80.27518 18516 ft 228 kts 303°
2026-05-06 20:50 36.25044 -80.29039 19324 ft 224 kts 302°
2026-05-06 20:50 36.26012 -80.30535 20120 ft 221 kts 302°
2026-05-06 20:50 36.26968 -80.32016 20907 ft 219 kts 302°
2026-05-06 20:51 36.27918 -80.33488 21692 ft 218 kts 302°
2026-05-06 20:51 36.28865 -80.34955 22477 ft 218 kts 302°
2026-05-06 20:51 36.29818 -80.36421 23269 ft 218 kts 301°
2026-05-06 20:51 36.30771 -80.37888 23981 ft 218 kts 300°
2026-05-06 20:52 36.31348 -80.39547 24614 ft 208 kts 278°
2026-05-06 20:52 36.31626 -80.41303 25266 ft 208 kts 280°
2026-05-06 20:52 36.32005 -80.43029 25925 ft 207 kts 282°
2026-05-06 20:52 36.32405 -80.44712 26560 ft 205 kts 282°
2026-05-06 20:53 36.32796 -80.46407 27208 ft 204 kts 281°
2026-05-06 20:53 36.33179 -80.48089 27853 ft 202 kts 281°
2026-05-06 20:53 36.33559 -80.49760 28500 ft 200 kts 281°
2026-05-06 20:53 36.33936 -80.51413 29135 ft 199 kts 281°
2026-05-06 20:54 36.34309 -80.53054 29756 ft 197 kts 280°
2026-05-06 20:54 36.34680 -80.54682 30326 ft 195 kts 280°
2026-05-06 20:54 36.35046 -80.56288 30855 ft 192 kts 280°
2026-05-06 20:54 36.35405 -80.57871 31377 ft 189 kts 280°
2026-05-06 20:55 36.35759 -80.59428 31901 ft 186 kts 280°
2026-05-06 20:55 36.36106 -80.60956 32416 ft 182 kts 280°
2026-05-06 20:55 36.36446 -80.62456 32937 ft 179 kts 280°
2026-05-06 20:55 36.36779 -80.63927 33415 ft 175 kts 280°
2026-05-06 20:56 36.37106 -80.65370 33922 ft 172 kts 279°
2026-05-06 20:56 36.37426 -80.66785 34353 ft 169 kts 280°
2026-05-06 20:56 36.37740 -80.68174 34779 ft 165 kts 280°
2026-05-06 20:56 36.38042 -80.69534 35194 ft 161 kts 278°
2026-05-06 20:57 36.38318 -80.70868 35601 ft 159 kts 282°
2026-05-06 20:57 36.38708 -80.72143 36023 ft 158 kts 285°
2026-05-06 20:57 36.39193 -80.73358 36420 ft 157 kts 288°
2026-05-06 20:57 36.39720 -80.74528 36809 ft 153 kts 287°
2026-05-06 20:58 36.40228 -80.75674 37191 ft 150 kts 287°
2026-05-06 20:58 36.40720 -80.76782 37561 ft 147 kts 287°
2026-05-06 20:58 36.41211 -80.77882 37932 ft 144 kts 287°
2026-05-06 20:58 36.41691 -80.78960 38282 ft 141 kts 287°
2026-05-06 20:59 36.42163 -80.80018 38630 ft 139 kts 287°
2026-05-06 20:59 36.42626 -80.81056 38900 ft 136 kts 287°
2026-05-06 20:59 36.43082 -80.82082 39145 ft 135 kts 287°
2026-05-06 20:59 36.43535 -80.83099 39379 ft 134 kts 287°
2026-05-06 21:00 36.43987 -80.84113 39593 ft 134 kts 287°
2026-05-06 21:00 36.44437 -80.85127 39799 ft 134 kts 288°
2026-05-06 21:00 36.44890 -80.86142 40011 ft 134 kts 288°
2026-05-06 21:00 36.45342 -80.87160 40203 ft 135 kts 288°
2026-05-06 21:01 36.45797 -80.88182 40373 ft 136 kts 288°
2026-05-06 21:01 36.46254 -80.89209 40551 ft 136 kts 288°
2026-05-06 21:01 36.46713 -80.90243 40695 ft 137 kts 289°
2026-05-06 21:01 36.47176 -80.91283 40834 ft 138 kts 288°
2026-05-06 21:02 36.47641 -80.92331 40965 ft 139 kts 289°
2026-05-06 21:02 36.48110 -80.93388 41110 ft 140 kts 288°
2026-05-06 21:02 36.48584 -80.94454 41387 ft 141 kts 288°
2026-05-06 21:02 36.49059 -80.95525 41588 ft 142 kts 288°
2026-05-06 21:03 36.49537 -80.96600 41759 ft 142 kts 288°
2026-05-06 21:03 36.50016 -80.97680 41927 ft 143 kts 288°
2026-05-06 21:03 36.50497 -80.98766 42083 ft 144 kts 288°
2026-05-06 21:03 36.50981 -80.99856 42241 ft 144 kts 288°
2026-05-06 21:04 36.51461 -81.00939 42392 ft 145 kts 289°
2026-05-06 21:04 36.51949 -81.02041 42544 ft 146 kts 289°
2026-05-06 21:04 36.52440 -81.03148 42680 ft 146 kts 288°
2026-05-06 21:04 36.52933 -81.04261 42789 ft 147 kts 289°
2026-05-06 21:05 36.53427 -81.05378 42909 ft 148 kts 289°
2026-05-06 21:05 36.53927 -81.06511 42957 ft 152 kts 289°
2026-05-06 21:05 36.54442 -81.07678 42963 ft 156 kts 289°
2026-05-06 21:05 36.54975 -81.08883 42958 ft 161 kts 289°
2026-05-06 21:06 36.55522 -81.10121 42975 ft 166 kts 289°
2026-05-06 21:06 36.56088 -81.11404 42980 ft 172 kts 290°
2026-05-06 21:06 36.56676 -81.12735 42963 ft 178 kts 290°
2026-05-06 21:06 36.57283 -81.14111 42955 ft 185 kts 290°
2026-05-06 21:07 36.57910 -81.15529 42960 ft 190 kts 290°
2026-05-06 21:07 36.58556 -81.16994 42958 ft 196 kts 290°
2026-05-06 21:07 36.59219 -81.18498 42962 ft 201 kts 290°
2026-05-06 21:07 36.59899 -81.20041 42968 ft 206 kts 290°
2026-05-06 21:08 36.60597 -81.21624 42958 ft 211 kts 291°
2026-05-06 21:08 36.61310 -81.23245 42966 ft 216 kts 291°
2026-05-06 21:08 36.62039 -81.24900 42967 ft 221 kts 291°
2026-05-06 21:08 36.62784 -81.26593 42963 ft 225 kts 291°
2026-05-06 21:09 36.63543 -81.28319 42973 ft 229 kts 291°
2026-05-06 21:09 36.64313 -81.30067 42975 ft 232 kts 290°
2026-05-06 21:09 36.65090 -81.31840 42971 ft 234 kts 290°
2026-05-06 21:09 36.65878 -81.33637 42975 ft 238 kts 290°
2026-05-06 21:10 36.66679 -81.35461 42980 ft 241 kts 291°
2026-05-06 21:10 36.67489 -81.37308 42983 ft 245 kts 291°
2026-05-06 21:10 36.68309 -81.39181 42991 ft 249 kts 290°
2026-05-06 21:10 36.69143 -81.41087 42980 ft 252 kts 290°
2026-05-06 21:11 36.69985 -81.43006 42981 ft 253 kts 290°
2026-05-06 21:11 36.70831 -81.44941 42988 ft 255 kts 291°
2026-05-06 21:11 36.71685 -81.46896 42987 ft 258 kts 291°
2026-05-06 21:11 36.72546 -81.48865 42983 ft 260 kts 291°
2026-05-06 21:12 36.73400 -81.50820 42995 ft 258 kts 290°
2026-05-06 21:12 36.74264 -81.52796 42982 ft 260 kts 291°
2026-05-06 21:12 36.75130 -81.54787 42976 ft 262 kts 291°
2026-05-06 21:12 36.76000 -81.56784 42936 ft 263 kts 291°
2026-05-06 21:13 36.76876 -81.58794 42945 ft 264 kts 291°
2026-05-06 21:13 36.77755 -81.60812 42944 ft 266 kts 291°
2026-05-06 21:13 36.78638 -81.62841 42947 ft 267 kts 291°
2026-05-06 21:13 36.79523 -81.64878 42953 ft 268 kts 291°
2026-05-06 21:14 36.80412 -81.66923 42955 ft 269 kts 290°
2026-05-06 21:14 36.81304 -81.68976 42960 ft 269 kts 290°
2026-05-06 21:14 36.82197 -81.71036 42964 ft 270 kts 290°
2026-05-06 21:14 36.83093 -81.73103 42966 ft 271 kts 290°
2026-05-06 21:15 36.83990 -81.75171 42969 ft 271 kts 290°
2026-05-06 21:15 36.84889 -81.77249 42973 ft 273 kts 290°
2026-05-06 21:15 36.85793 -81.79336 42970 ft 273 kts 290°
2026-05-06 21:15 36.86697 -81.81426 42975 ft 274 kts 290°
2026-05-06 21:16 36.87604 -81.83522 42974 ft 274 kts 290°
2026-05-06 21:16 36.88511 -81.85623 42975 ft 275 kts 290°
2026-05-06 21:16 36.89420 -81.87728 42970 ft 275 kts 290°
2026-05-06 21:16 36.90327 -81.89830 42979 ft 275 kts 290°
2026-05-06 21:17 36.91236 -81.91938 42977 ft 276 kts 290°
2026-05-06 21:17 36.92146 -81.94051 42979 ft 276 kts 290°
2026-05-06 21:17 36.93058 -81.96171 42975 ft 277 kts 290°
2026-05-06 21:17 36.93972 -81.98293 42974 ft 277 kts 290°
2026-05-06 21:18 36.94887 -82.00418 42968 ft 278 kts 290°
2026-05-06 21:18 36.95800 -82.02544 42966 ft 278 kts 290°
2026-05-06 21:18 36.96713 -82.04672 42955 ft 278 kts 290°
2026-05-06 21:18 36.97627 -82.06802 42961 ft 278 kts 290°
2026-05-06 21:19 36.98544 -82.08938 42952 ft 279 kts 290°
2026-05-06 21:19 36.99458 -82.11067 42952 ft 278 kts 290°
2026-05-06 21:19 37.00368 -82.13194 42947 ft 277 kts 290°
2026-05-06 21:19 37.01277 -82.15319 42946 ft 277 kts 290°
2026-05-06 21:20 37.02188 -82.17449 42936 ft 277 kts 290°
2026-05-06 21:20 37.02790 -82.18855 42928 ft 277 kts 290°
2026-05-06 21:20 37.04001 -82.21688 42927 ft 276 kts 290°
2026-05-06 21:20 37.04892 -82.23777 42911 ft 276 kts 289°
2026-05-06 21:21 37.05793 -82.25888 42922 ft 275 kts 290°
2026-05-06 21:21 37.06693 -82.28001 42919 ft 275 kts 290°
2026-05-06 21:21 37.07594 -82.30114 42919 ft 275 kts 290°
2026-05-06 21:21 37.08495 -82.32230 42917 ft 275 kts 290°
2026-05-06 21:22 37.09397 -82.34350 42914 ft 275 kts 290°
2026-05-06 21:22 37.10297 -82.36466 42915 ft 276 kts 290°
2026-05-06 21:22 37.11200 -82.38588 42920 ft 276 kts 290°
2026-05-06 21:22 37.12102 -82.40713 42921 ft 276 kts 289°
2026-05-06 21:23 37.13004 -82.42839 42926 ft 277 kts 289°
2026-05-06 21:23 37.13909 -82.44971 42924 ft 277 kts 289°
2026-05-06 21:23 37.14812 -82.47103 42926 ft 277 kts 289°
2026-05-06 21:23 37.15716 -82.49237 42927 ft 278 kts 289°
2026-05-06 21:24 37.16622 -82.51377 42974 ft 278 kts 289°
2026-05-06 21:24 37.17529 -82.53522 42972 ft 279 kts 289°
2026-05-06 21:24 37.18437 -82.55670 42970 ft 279 kts 289°
2026-05-06 21:24 37.19346 -82.57821 42969 ft 279 kts 289°
2026-05-06 21:25 37.20255 -82.59973 42966 ft 279 kts 289°
2026-05-06 21:25 37.21163 -82.62124 42966 ft 279 kts 289°
2026-05-06 21:25 37.22070 -82.64276 42963 ft 279 kts 289°
2026-05-06 21:25 37.22977 -82.66428 42958 ft 279 kts 289°
2026-05-06 21:26 37.23883 -82.68581 42956 ft 279 kts 289°
2026-05-06 21:26 37.24787 -82.70729 42954 ft 278 kts 289°
2026-05-06 21:26 37.25692 -82.72881 42951 ft 280 kts 289°
2026-05-06 21:26 37.26600 -82.75044 42942 ft 280 kts 289°
2026-05-06 21:27 37.27511 -82.77211 42943 ft 281 kts 289°
2026-05-06 21:27 37.28421 -82.79382 42947 ft 281 kts 288°
2026-05-06 21:27 37.29334 -82.81557 42954 ft 281 kts 288°
2026-05-06 21:27 37.30247 -82.83737 42935 ft 282 kts 288°
2026-05-06 21:28 37.31160 -82.85913 42956 ft 281 kts 288°
2026-05-06 21:28 37.32070 -82.88087 42961 ft 281 kts 288°
2026-05-06 21:28 37.32980 -82.90266 42966 ft 282 kts 288°
2026-05-06 21:28 37.33891 -82.92446 42964 ft 282 kts 288°
2026-05-06 21:29 37.34802 -82.94625 42969 ft 282 kts 288°
2026-05-06 21:29 37.35405 -82.96072 42971 ft 282 kts 288°
2026-05-06 21:29 37.36316 -82.98256 42969 ft 282 kts 288°
2026-05-06 21:29 37.37228 -83.00443 42975 ft 282 kts 288°
2026-05-06 21:30 37.38140 -83.02631 42984 ft 283 kts 288°
2026-05-06 21:30 37.39051 -83.04819 42987 ft 283 kts 288°
2026-05-06 21:30 37.39963 -83.07012 42990 ft 283 kts 288°
2026-05-06 21:30 37.40874 -83.09204 42992 ft 283 kts 288°
2026-05-06 21:31 37.41786 -83.11398 42995 ft 283 kts 288°
2026-05-06 21:31 37.42697 -83.13592 42998 ft 283 kts 288°
2026-05-06 21:31 37.43606 -83.15783 43007 ft 282 kts 288°
2026-05-06 21:31 37.44515 -83.17975 43007 ft 283 kts 288°
2026-05-06 21:32 37.45424 -83.20172 43004 ft 283 kts 288°
2026-05-06 21:32 37.47249 -83.24578 43003 ft 284 kts 288°
2026-05-06 21:32 37.48161 -83.26787 43003 ft 284 kts 288°
2026-05-06 21:33 37.49114 -83.28979 42994 ft 288 kts 291°
2026-05-06 21:33 37.50230 -83.31094 42998 ft 293 kts 295°
2026-05-06 21:33 37.51509 -83.33119 42999 ft 298 kts 298°
2026-05-06 21:33 37.52954 -83.35034 43053 ft 305 kts 302°
2026-05-06 21:34 37.56336 -83.38442 42999 ft 322 kts 311°
2026-05-06 21:34 37.60406 -83.41153 42995 ft 339 kts 320°
2026-05-06 21:35 37.64718 -83.43543 42998 ft 338 kts 319°
2026-05-06 21:35 37.69025 -83.45954 42986 ft 339 kts 320°
2026-05-06 21:36 37.73351 -83.48365 42980 ft 340 kts 319°
2026-05-06 21:36 37.77673 -83.50783 43040 ft 340 kts 319°
2026-05-06 21:37 37.82006 -83.53208 42982 ft 340 kts 319°
2026-05-06 21:37 37.86143 -83.55891 42981 ft 326 kts 311°
2026-05-06 21:38 37.89627 -83.59309 42982 ft 309 kts 302°
2026-05-06 21:38 37.92472 -83.63247 42987 ft 300 kts 297°
2026-05-06 21:39 37.95197 -83.67270 42965 ft 300 kts 298°
2026-05-06 21:39 37.96546 -83.69263 42119 ft 299 kts 297°
2026-05-06 21:39 37.97880 -83.71245 41105 ft 292 kts 296°
2026-05-06 21:40 37.99179 -83.73167 40185 ft 282 kts 296°
2026-05-06 21:40 38.00434 -83.75030 39693 ft 273 kts 295°
2026-05-06 21:40 38.01645 -83.76827 39343 ft 262 kts 295°
2026-05-06 21:40 38.02804 -83.78550 39042 ft 252 kts 294°
2026-05-06 21:41 38.03916 -83.80207 38699 ft 242 kts 293°
2026-05-06 21:41 38.04987 -83.81803 38294 ft 235 kts 292°
2026-05-06 21:41 38.06068 -83.83455 37893 ft 253 kts 293°
2026-05-06 21:41 38.07239 -83.85224 37496 ft 270 kts 294°
2026-05-06 21:42 38.08497 -83.87087 37107 ft 285 kts 295°
2026-05-06 21:42 38.09797 -83.89010 36732 ft 297 kts 296°
2026-05-06 21:42 38.11245 -83.90979 36362 ft 314 kts 300°
2026-05-06 21:42 38.12890 -83.92871 36015 ft 325 kts 303°
2026-05-06 21:43 38.14714 -83.94644 35650 ft 336 kts 308°
2026-05-06 21:43 38.16722 -83.96268 35295 ft 348 kts 312°
2026-05-06 21:43 38.18857 -83.97776 34903 ft 353 kts 313°
2026-05-06 21:43 38.20977 -83.99279 34316 ft 344 kts 312°
2026-05-06 21:44 38.23031 -84.00753 33702 ft 335 kts 311°
2026-05-06 21:44 38.25033 -84.02203 33043 ft 328 kts 311°
2026-05-06 21:44 38.27001 -84.03623 32401 ft 323 kts 311°
2026-05-06 21:44 38.28951 -84.05023 31772 ft 320 kts 311°
2026-05-06 21:45 38.30879 -84.06412 31163 ft 317 kts 311°
2026-05-06 21:45 38.32792 -84.07791 30566 ft 315 kts 311°
2026-05-06 21:45 38.34697 -84.09166 29962 ft 314 kts 311°
2026-05-06 21:45 38.36596 -84.10535 29274 ft 313 kts 311°
2026-05-06 21:46 38.38489 -84.11903 28599 ft 312 kts 311°
2026-05-06 21:46 38.40331 -84.13313 27947 ft 306 kts 309°
2026-05-06 21:46 38.42206 -84.14666 27314 ft 315 kts 315°
2026-05-06 21:46 38.44063 -84.16024 26686 ft 300 kts 307°
2026-05-06 21:47 38.45664 -84.17625 25810 ft 284 kts 302°
2026-05-06 21:47 38.47275 -84.19075 24793 ft 286 kts 311°
2026-05-06 21:47 38.48970 -84.20329 23783 ft 275 kts 309°
2026-05-06 21:47 38.50596 -84.21568 22641 ft 271 kts 312°
2026-05-06 21:48 38.52288 -84.22667 21552 ft 279 kts 317°
2026-05-06 21:48 38.54109 -84.23692 20439 ft 292 kts 320°
2026-05-06 21:48 38.55991 -84.24743 19368 ft 298 kts 321°
2026-05-06 21:48 38.57881 -84.25849 18338 ft 300 kts 321°
2026-05-06 21:49 38.59779 -84.26972 17175 ft 301 kts 322°
2026-05-06 21:49 38.61688 -84.28092 16051 ft 303 kts 323°
2026-05-06 21:49 38.63607 -84.29212 14964 ft 304 kts 324°
2026-05-06 21:49 38.65531 -84.30340 13908 ft 305 kts 324°
2026-05-06 21:50 38.67464 -84.31475 12768 ft 303 kts 325°
2026-05-06 21:50 38.69312 -84.32541 11654 ft 282 kts 324°
2026-05-06 21:50 38.71057 -84.33565 10570 ft 275 kts 324°
2026-05-06 21:50 38.72800 -84.34612 9533 ft 272 kts 324°
2026-05-06 21:51 38.74531 -84.35631 9002 ft 280 kts 326°
2026-05-06 21:51 38.76301 -84.36672 8512 ft 279 kts 327°
2026-05-06 21:51 38.78027 -84.37681 8019 ft 274 kts 328°
2026-05-06 21:51 38.79740 -84.38683 7480 ft 254 kts 328°
2026-05-06 21:52 38.81256 -84.39571 6986 ft 230 kts 328°
2026-05-06 21:52 38.82629 -84.40381 6788 ft 210 kts 328°
2026-05-06 21:52 38.83932 -84.41159 6567 ft 203 kts 328°
2026-05-06 21:52 38.85200 -84.41910 6335 ft 198 kts 329°
2026-05-06 21:53 38.86438 -84.42641 6093 ft 194 kts 330°
2026-05-06 21:53 38.87646 -84.43355 5868 ft 188 kts 331°
2026-05-06 21:53 38.88820 -84.44048 5651 ft 185 kts 332°
2026-05-06 21:53 38.89980 -84.44735 5418 ft 182 kts 332°
2026-05-06 21:54 38.91138 -84.45420 5185 ft 197 kts 333°
2026-05-06 21:54 38.92522 -84.46246 4799 ft 231 kts 335°
2026-05-06 21:54 38.94035 -84.47136 4394 ft 247 kts 335°
2026-05-06 21:54 38.95623 -84.48071 4016 ft 251 kts 335°
2026-05-06 21:55 38.97215 -84.49016 3665 ft 252 kts 335°
2026-05-06 21:55 38.98796 -84.49953 3337 ft 248 kts 335°
2026-05-06 21:55 39.00358 -84.50874 3023 ft 246 kts 337°
2026-05-06 21:55 39.01993 -84.51446 2707 ft 244 kts 353°
2026-05-06 21:56 39.03706 -84.51433 2380 ft 250 kts
2026-05-06 21:56 39.05301 -84.50859 2181 ft 220 kts 22°
2026-05-06 21:56 39.06533 -84.49944 1932 ft 188 kts 33°
2026-05-06 21:56 39.07380 -84.48922 1804 ft 148 kts 47°
2026-05-06 21:57 39.07955 -84.47883 1537 ft 138 kts 50°
2026-05-06 21:57 39.08465 -84.46938 1323 ft 121 kts 52°
2026-05-06 21:57 39.08898 -84.46022 1172 ft 122 kts 56°
2026-05-06 21:57 39.09337 -84.45009 1059 ft 135 kts 59°
2026-05-06 21:58 39.09795 -84.43902 795 ft 139 kts 58°
2026-05-06 21:58 39.10216 -84.42889 524 ft 116 kts 58°
2026-05-06 21:58 39.10552 -84.42091 469 ft 86 kts 60°
2026-05-06 21:58 39.10764 -84.41578 475 ft 19 kts 63°
2026-05-06 21:59 39.10771 -84.41554 475 ft 1 kts 33°
2026-05-06 21:59 39.10773 -84.41577 472 ft 9 kts 245°
2026-05-06 21:59 39.10607 -84.41958 477 ft 82 kts 241°
2026-05-06 21:59 39.10391 -84.42476 473 ft 44 kts 243°
2026-05-06 22:00 39.10317 -84.42677 477 ft 14 kts 265°
2026-05-06 22:00 39.10378 -84.42739 480 ft 12 kts 20°
2026-05-06 22:00 39.10424 -84.42711 479 ft 4 kts 339°
2026-05-06 22:00 39.10488 -84.42775 479 ft 15 kts 294°